• In Lithuania
  • List of Countries
  • For 7 days
  • Water Temperature
  • Satellite Maps
  • Weather Map
  • Weather Widgets
  • user-avatar
    Login

    Hourly Weather Krasnyy Manych

    Today, 14 August, Tuesday

    Time Temperature Precipitation Wind Pressure Humidity
    00:00 +24°C° 0 mm 1 mps 751 mmHg 45%
    01:00 +24°C° 0 mm 1 mps 751 mmHg 45%
    02:00 +24°C° 0 mm 2 mps 751 mmHg 45%
    03:00 +22°C° 0 mm 3 mps 751 mmHg 45%
    04:00 +22°C° 0 mm 3 mps 751 mmHg 45%
    05:00 +22°C° 0 mm 3 mps 751 mmHg 46%
    06:00 +23°C° 0 mm 2 mps 752 mmHg 46%
    07:00 +25°C° 0 mm 2 mps 752 mmHg 41%
    08:00 +27°C° 0 mm 2 mps 752 mmHg 36%
    09:00 +29°C° 0 mm 2 mps 752 mmHg 30%
    10:00 +30°C° 0 mm 1 mps 752 mmHg 28%
    11:00 +32°C° 0 mm 1 mps 752 mmHg 26%
    12:00 +31°C° 0 mm 0 mps 752 mmHg 24%
    13:00 +33°C° 0 mm 1 mps 751 mmHg 23%
    14:00 +34°C° 0 mm 1 mps 751 mmHg 22%
    15:00 +34°C° 0 mm 1 mps 751 mmHg 21%
    16:00 +34°C° 0 mm 1 mps 751 mmHg 22%
    17:00 +34°C° 0 mm 1 mps 751 mmHg 22%
    18:00 +34°C° 0 mm 1 mps 751 mmHg 23%
    19:00 +32°C° 0 mm 1 mps 751 mmHg 26%
    20:00 +31°C° 0 mm 1 mps 751 mmHg 29%
    21:00 +29°C° 0 mm 1 mps 751 mmHg 32%
    22:00 +29°C° 0 mm 1 mps 751 mmHg 33%
    23:00 +28°C° 0 mm 1 mps 751 mmHg 35%

    Tomorrow, 15 August, Wednesday

    Time Temperature Precipitation Wind Pressure Humidity
    00:00 +28°C° 0 mm 1 mps 751 mmHg 36%
    01:00 +27°C° 0 mm 1 mps 751 mmHg 38%
    02:00 +26°C° 0 mm 1 mps 751 mmHg 39%
    03:00 +26°C° 0 mm 1 mps 751 mmHg 40%
    04:00 +26°C° 0 mm 1 mps 751 mmHg 41%
    05:00 +26°C° 0 mm 1 mps 751 mmHg 42%
    06:00 +26°C° 0 mm 1 mps 751 mmHg 42%
    07:00 +28°C° 0 mm 2 mps 751 mmHg 37%
    08:00 +30°C° 0 mm 2 mps 752 mmHg 33%
    09:00 +34°C° 0 mm 2 mps 752 mmHg 28%
    10:00 +35°C° 0 mm 3 mps 752 mmHg 26%
    11:00 +36°C° 0 mm 4 mps 752 mmHg 24%
    12:00 +37°C° 0 mm 5 mps 752 mmHg 22%
    13:00 +37°C° 0 mm 5 mps 751 mmHg 21%
    14:00 +37°C° 0 mm 5 mps 751 mmHg 21%
    15:00 +37°C° 0 mm 5 mps 751 mmHg 21%
    16:00 +37°C° 0 mm 5 mps 751 mmHg 22%
    17:00 +36°C° 0 mm 5 mps 751 mmHg 23%
    18:00 +36°C° 0 mm 4 mps 751 mmHg 24%
    19:00 +34°C° 0 mm 4 mps 751 mmHg 26%
    20:00 +32°C° 0 mm 4 mps 751 mmHg 29%
    21:00 +30°C° 0 mm 4 mps 752 mmHg 32%
    22:00 +29°C° 0 mm 4 mps 751 mmHg 34%
    23:00 +28°C° 0 mm 3 mps 751 mmHg 36%

    Day after tomorrow, 16 August, Thursday

    Time Temperature Precipitation Wind Pressure Humidity
    00:00 +27°C° 0 mm 3 mps 751 mmHg 38%
    01:00 +27°C° 0 mm 2 mps 751 mmHg 40%
    02:00 +26°C° 0 mm 2 mps 751 mmHg 42%
    03:00 +25°C° 0 mm 2 mps 751 mmHg 44%
    04:00 +25°C° 0 mm 2 mps 751 mmHg 45%
    05:00 +25°C° 0 mm 3 mps 751 mmHg 46%
    06:00 +25°C° 0 mm 3 mps 751 mmHg 47%
    07:00 +27°C° 0 mm 4 mps 751 mmHg 42%
    08:00 +29°C° 0 mm 5 mps 752 mmHg 38%
    09:00 +32°C° 0 mm 6 mps 752 mmHg 33%
    10:00 +33°C° 0 mm 6 mps 751 mmHg 31%
    11:00 +34°C° 0 mm 6 mps 751 mmHg 28%
    12:00 +35°C° 0 mm 7 mps 751 mmHg 26%
    13:00 +36°C° 0 mm 7 mps 750 mmHg 25%
    14:00 +36°C° 0 mm 6 mps 750 mmHg 24%
    15:00 +38°C° 0 mm 6 mps 750 mmHg 23%
    16:00 +36°C° 0 mm 6 mps 749 mmHg 24%
    17:00 +36°C° 0 mm 6 mps 749 mmHg 25%
    18:00 +35°C° 0 mm 5 mps 749 mmHg 26%
    19:00 +34°C° 0 mm 5 mps 749 mmHg 28%
    20:00 +32°C° 0 mm 5 mps 750 mmHg 31%
    21:00 +30°C° 0 mm 5 mps 750 mmHg 33%
    22:00 +29°C° 0 mm 5 mps 750 mmHg 36%
    23:00 +28°C° 0 mm 4 mps 749 mmHg 38%

    17 August, Friday

    Time Temperature Precipitation Wind Pressure Humidity
    00:00 +27°C° 0 mm 4 mps 749 mmHg 41%
    01:00 +27°C° 0 mm 4 mps 749 mmHg 43%
    02:00 +26°C° 0 mm 4 mps 749 mmHg 44%
    03:00 +25°C° 0 mm 3 mps 749 mmHg 46%
    04:00 +25°C° 0 mm 3 mps 749 mmHg 46%
    05:00 +25°C° 0 mm 3 mps 749 mmHg 46%
    06:00 +25°C° 0 mm 3 mps 749 mmHg 46%
    07:00 +27°C° 0 mm 4 mps 749 mmHg 40%
    08:00 +29°C° 0 mm 4 mps 749 mmHg 34%
    09:00 +32°C° 0 mm 5 mps 749 mmHg 29%
    10:00 +34°C° 0 mm 5 mps 749 mmHg 26%
    11:00 +35°C° 0 mm 6 mps 749 mmHg 24%
    12:00 +38°C° 0 mm 6 mps 748 mmHg 22%
    13:00 +38°C° 0 mm 6 mps 748 mmHg 21%
    14:00 +37°C° 0 mm 5 mps 748 mmHg 21%
    15:00 +39°C° 0 mm 5 mps 747 mmHg 21%
    16:00 +39°C° 0 mm 5 mps 747 mmHg 22%
    17:00 +37°C° 0 mm 4 mps 747 mmHg 23%
    18:00 +37°C° 0 mm 3 mps 747 mmHg 24%
    19:00 +35°C° 0 mm 3 mps 747 mmHg 26%
    20:00 +34°C° 0 mm 3 mps 747 mmHg 28%
    21:00 +31°C° 0 mm 3 mps 747 mmHg 30%
    22:00 +31°C° 0.1 mm 3 mps 747 mmHg 34%
    23:00 +30°C° 0.1 mm 4 mps 747 mmHg 37%

    18 August, Saturday

    Time Temperature Precipitation Wind Pressure Humidity
    00:00 +30°C° 0.1 mm 4 mps 747 mmHg 41%
    01:00 +29°C° 0.2 mm 4 mps 747 mmHg 46%
    02:00 +29°C° 0.2 mm 3 mps 747 mmHg 52%
    03:00 +28°C° 0.2 mm 3 mps 747 mmHg 58%
    04:00 +28°C° 0 mm 3 mps 747 mmHg 59%
    05:00 +27°C° 0 mm 3 mps 747 mmHg 59%
    06:00 +27°C° 0 mm 2 mps 748 mmHg 60%
    07:00 +28°C° 0.4 mm 3 mps 748 mmHg 55%
    08:00 +29°C° 0.4 mm 3 mps 748 mmHg 51%
    09:00 +30°C° 0.4 mm 4 mps 748 mmHg 46%
    10:00 +32°C° 0 mm 4 mps 748 mmHg 42%
    11:00 +33°C° 0 mm 4 mps 748 mmHg 37%
    12:00 +34°C° 0 mm 4 mps 748 mmHg 32%
    13:00 +35°C° 0 mm 4 mps 748 mmHg 30%
    14:00 +36°C° 0 mm 4 mps 748 mmHg 27%
    15:00 +36°C° 0 mm 4 mps 748 mmHg 24%
    16:00 +36°C° 0 mm 4 mps 748 mmHg 24%
    17:00 +36°C° 0 mm 3 mps 748 mmHg 24%
    18:00 +35°C° 0 mm 3 mps 748 mmHg 24%
    19:00 +34°C° 0 mm 3 mps 748 mmHg 25%
    20:00 +33°C° 0 mm 3 mps 748 mmHg 27%
    21:00 +30°C° 0 mm 3 mps 749 mmHg 28%
    22:00 +30°C° 0 mm 4 mps 749 mmHg 31%
    23:00 +29°C° 0 mm 5 mps 749 mmHg 33%

    19 August, Sunday

    Time Temperature Precipitation Wind Pressure Humidity
    00:00 +29°C° 0 mm 6 mps 749 mmHg 35%
    01:00 +28°C° 0 mm 5 mps 749 mmHg 37%
    02:00 +27°C° 0 mm 5 mps 749 mmHg 39%
    03:00 +27°C° 0 mm 5 mps 749 mmHg 41%
    04:00 +26°C° 0 mm 5 mps 750 mmHg 42%
    05:00 +26°C° 0 mm 5 mps 750 mmHg 42%
    06:00 +25°C° 0 mm 5 mps 750 mmHg 43%
    07:00 +26°C° 0 mm 5 mps 750 mmHg 39%
    08:00 +28°C° 0 mm 6 mps 751 mmHg 36%
    09:00 +29°C° 0 mm 6 mps 751 mmHg 33%
    10:00 +30°C° 0 mm 6 mps 751 mmHg 31%
    11:00 +32°C° 0 mm 6 mps 751 mmHg 29%
    12:00 +33°C° 0 mm 6 mps 750 mmHg 28%
    13:00 +33°C° 0 mm 5 mps 750 mmHg 26%
    14:00 +34°C° 0 mm 5 mps 750 mmHg 25%
    15:00 +34°C° 0 mm 5 mps 750 mmHg 24%
    16:00 +33°C° 0 mm 5 mps 750 mmHg 24%
    17:00 +33°C° 0 mm 5 mps 750 mmHg 23%
    18:00 +32°C° 0 mm 5 mps 750 mmHg 22%
    19:00 +29°C° 0 mm 5 mps 750 mmHg 23%
    20:00 +28°C° 0 mm 5 mps 751 mmHg 24%
    21:00 +27°C° 0 mm 4 mps 751 mmHg 25%
    22:00 +26°C° 0 mm 5 mps 751 mmHg 26%
    23:00 +25°C° 0 mm 5 mps 751 mmHg 28%
    Show more